Location: Caltech
(34.1382°N, 118.1253°W)
Time: 18:49:59
(UTC-07:00)

Tiros 1 despin weight - All Passes

Search period start: 17 October 2017 00:00
Search period end: 27 October 2017 00:00
Orbit: 594 x 644 km, 48.2° (Epoch: 17 October)

Date Brightness Start Highest point End Pass type
(mag) Time Alt. Az. Time Alt. Az. Time Alt. Az.
17 Oct - 01:29:05 10° NNW 01:33:01 25° NNE 01:36:54 10° E night (unlit)
17 Oct - 03:10:19 10° NW 03:15:00 77° SW 03:19:39 10° SE night (unlit)
17 Oct - 04:54:51 10° WSW 04:55:58 11° SW 04:57:05 10° SW night (unlit)
17 Oct - 18:56:04 10° SSW 19:00:18 38° SE 19:04:37 10° ENE visible
17 Oct - 20:37:34 10° W 20:41:54 38° NNW 20:46:18 10° NE visible
17 Oct - 22:21:38 10° NW 22:24:31 16° N 22:27:26 10° NNE night (unlit)
18 Oct - 00:04:40 10° NNW 00:07:37 16° N 00:10:34 10° NE night (unlit)
18 Oct - 01:45:47 10° NW 01:50:14 40° NNE 01:54:38 10° E night (unlit)
18 Oct - 03:27:29 10° WNW 03:31:48 37° SW 03:36:03 10° SSE night (unlit)
18 Oct - 17:34:48 10° SE 17:36:08 11° SE 17:37:29 10° ESE daylight
18 Oct - 19:12:30 10° SW 19:17:06 80° SE 19:21:47 10° NE visible
18 Oct - 20:55:17 10° WNW 20:59:07 25° NNW 21:02:59 10° NNE visible
18 Oct - 22:39:29 10° NW 22:42:02 14° N 22:44:35 10° NNE night (unlit)
19 Oct - 00:21:29 10° NNW 00:25:03 21° NNE 00:28:36 10° ENE night (unlit)
19 Oct - 02:02:33 10° NW 02:07:16 73° NE 02:11:56 10° ESE night (unlit)
19 Oct - 03:45:22 10° W 03:48:26 17° SW 03:51:29 10° S night (unlit)
19 Oct - 17:48:59 10° S 17:52:43 25° SE 17:56:29 10° ENE daylight
19 Oct - 19:29:33 10° WSW 19:34:04 53° NNW 19:38:38 10° NE visible
19 Oct - 21:13:17 10° WNW 21:16:29 18° NNW 21:19:42 10° NNE visible
19 Oct - 22:56:53 10° NNW 22:59:33 15° N 23:02:14 10° NE night (unlit)
20 Oct - 00:38:10 10° NW 00:42:20 30° NNE 00:46:29 10° E night (unlit)
20 Oct - 02:19:32 10° WNW 02:24:09 56° SW 02:28:42 10° SE night (unlit)
20 Oct - 18:04:58 10° SSW 18:09:25 53° SE 18:13:56 10° ENE daylight
20 Oct - 19:47:05 10° W 19:51:12 31° NNW 19:55:21 10° NE visible
20 Oct - 21:31:17 10° NW 21:33:57 15° N 21:36:38 10° NNE visible
20 Oct - 23:13:50 10° NNW 23:17:02 18° NNE 23:20:14 10° ENE night (unlit)
21 Oct - 00:54:52 10° NW 00:59:28 51° NNE 01:04:02 10° ESE night (unlit)
21 Oct - 02:36:57 10° WNW 02:40:52 26° SW 02:44:45 10° S night (unlit)
21 Oct - 16:42:22 10° SSE 16:45:09 16° SE 16:47:58 10° E daylight
21 Oct - 18:21:43 10° WSW 18:26:17 76° NW 18:30:56 10° NE daylight
21 Oct - 20:04:56 10° WNW 20:08:28 21° NNW 20:12:02 10° NNE visible
21 Oct - 21:48:57 10° NNW 21:51:29 14° N 21:54:00 10° NE visible
21 Oct - 23:30:33 10° NNW 23:34:24 24° NNE 23:38:14 10° ENE night (unlit)
22 Oct - 01:11:43 10° NW 01:16:26 84° SW 01:21:07 10° SE night (unlit)
22 Oct - 02:55:37 10° WSW 02:57:27 12° SW 02:59:16 10° SSW night (unlit)
22 Oct - 16:57:40 10° SSW 17:01:47 34° SE 17:05:58 10° ENE daylight
22 Oct - 18:38:59 10° W 18:43:18 40° NNW 18:47:43 10° NE visible
22 Oct - 20:22:59 10° NW 20:25:53 16° N 20:28:49 10° NNE visible
22 Oct - 22:06:07 10° NNW 22:08:59 16° N 22:11:52 10° NE visible
22 Oct - 23:47:14 10° NW 23:51:37 37° NNE 23:55:59 10° E night (unlit)
23 Oct - 01:28:51 10° WNW 01:33:14 40° SW 01:37:36 10° SSE night (unlit)
23 Oct - 17:14:02 10° SW 17:18:32 74° SE 17:23:10 10° NE daylight
23 Oct - 18:56:40 10° W 19:00:30 25° NNW 19:04:23 10° NNE visible
23 Oct - 20:40:52 10° NW 20:43:23 14° N 20:45:55 10° NNE visible
23 Oct - 22:22:56 10° NNW 22:26:25 20° NNE 22:29:54 10° ENE night (unlit)
24 Oct - 00:03:59 10° NW 00:08:40 68° NE 00:13:20 10° ESE night (unlit)
24 Oct - 01:46:36 10° W 01:49:54 19° SW 01:53:12 10° S night (unlit)
24 Oct - 15:50:41 10° S 15:54:12 22° SE 15:57:45 10° E daylight
24 Oct - 17:31:01 10° WSW 17:35:29 56° NW 17:40:03 10° NE daylight
24 Oct - 19:14:38 10° WNW 19:17:51 18° NNW 19:21:06 10° NNE visible
24 Oct - 20:58:19 10° NNW 21:00:54 15° N 21:03:31 10° NE visible
24 Oct - 22:39:37 10° NW 22:43:43 29° NNE 22:47:49 10° E night (unlit)
25 Oct - 00:20:55 10° WNW 00:25:34 61° SW 00:30:11 10° SE night (unlit)
25 Oct - 16:06:33 10° SSW 16:10:52 48° SE 16:15:18 10° ENE daylight
25 Oct - 17:48:29 10° W 17:52:34 32° NNW 17:56:45 10° NE daylight
25 Oct - 19:32:39 10° NW 19:35:18 15° N 19:37:59 10° NNE visible
25 Oct - 21:15:17 10° NNW 21:18:23 17° NNE 21:21:30 10° NE visible
25 Oct - 22:56:18 10° NW 23:00:51 48° NNE 23:05:24 10° ESE night (unlit)
26 Oct - 00:38:15 10° WNW 00:42:18 29° SW 00:46:20 10° SSE night (unlit)
26 Oct - 14:44:12 10° SSE 14:46:38 14° SE 14:49:05 10° E daylight
26 Oct - 16:23:11 10° SW 16:27:43 81° NW 16:32:19 10° NE daylight
26 Oct - 18:06:19 10° WNW 18:09:51 21° NNW 18:13:25 10° NNE daylight
26 Oct - 19:50:22 10° NNW 19:52:49 14° N 19:55:17 10° NNE visible
26 Oct - 21:32:00 10° NNW 21:35:45 23° NNE 21:39:31 10° ENE visible
26 Oct - 23:13:07 10° NW 23:17:50 90° SW 23:22:32 10° SE night (unlit)
